Voltar ao catálogo

FENGYUN 1C DEB

AtivoSSO
NORAD 29843·DEBRIS·🇨🇳 China

Lançado May 10, 1999 de Taiyuan Satellite Launch Center

Loading…

Próximas Passagens (próximas 24 horas)

TLE

AtualizadoSource: Space-Track

Época: Sep 14, 2026, 01:45 UTC

1 29843U 99025EM  26257.07330166  .00000513  00000-0  18411-3 0  9996
2 29843  99.0141 110.2297 0190922 212.8003 302.2166 14.28961001 22032

Acompanhe FENGYUN 1C DEB em tempo real com AllMySat

Download on the App Store